Location: Newark
(53.3503°N, 9.6158°W)
Time: 04:50:14
(UTC+00:00)

Envisat - Pass Details

Date: 31 October 2019
Orbit: 764 x 766 km, 98.1° (Epoch: 17 November)

Event Time Altitude Azimuth Distance (km) Brightness Sun altitude
Rises 19:02:47 0° 182° (S) 3,222 6.3 -17.4°
Reaches altitude 10° 19:05:10 10° 189° (S) 2,300 5.6 -17.8°
Maximum altitude 19:10:02 46° 262° (W) 1,032 4.1 -18.5°
Drops below altitude 10° 19:14:56 10° 335° (NNW) 2,316 5.8 -19.2°
Sets 19:17:21 0° 342° (NNW) 3,247 6.5 -19.6°
